Time,TemperatureF,DewpointF,PressureIn,WindDirection,WindDirectionDegrees,WindSpeedMPH,WindSpeedGustMPH,Humidity,HourlyPrecipIn,Conditions,Clouds,dailyrainin,SolarRadiationWatts/m^2,SoftwareType,DateUTC
2013-04-11 00:03:00,58.0,57.0,-100.00,SE,143,3.0,6.0,98,0.04,,,0.67,0.000000,,2013-04-11 04:03:00,
2013-04-11 00:10:00,58.0,58.0,-100.00,SSW,207,5.0,8.0,99,0.01,,,0.68,0.000000,,2013-04-11 04:10:00,
2013-04-11 00:43:00,58.0,58.0,-100.00,SSW,207,5.0,8.0,99,0.01,,,0.68,0.000000,,2013-04-11 04:43:00,
2013-04-11 00:53:00,58.0,58.0,-100.00,SSW,207,5.0,8.0,99,0.01,,,0.68,0.000000,,2013-04-11 04:53:00,
2013-04-11 01:03:00,58.0,58.0,-100.00,SSW,207,5.0,8.0,99,0.01,,,0.68,0.000000,,2013-04-11 05:03:00,
2013-04-11 01:10:00,58.0,58.0,-100.00,WSW,242,4.0,9.0,100,0.01,,,0.69,0.000000,,2013-04-11 05:10:00,
2013-04-11 01:42:00,58.0,58.0,-100.00,WSW,242,4.0,9.0,100,0.01,,,0.69,0.000000,,2013-04-11 05:42:00,
2013-04-11 01:52:00,58.0,58.0,-100.00,WSW,242,4.0,9.0,100,0.01,,,0.69,0.000000,,2013-04-11 05:52:00,
2013-04-11 02:02:00,58.0,58.0,-100.00,WSW,242,4.0,9.0,100,0.01,,,0.69,0.000000,,2013-04-11 06:02:00,
2013-04-11 02:10:00,59.0,59.0,-100.00,SSW,202,5.0,9.0,100,0.00,,,0.69,0.000000,,2013-04-11 06:10:00,
2013-04-11 02:42:00,59.0,59.0,-100.00,SSW,202,5.0,9.0,100,0.00,,,0.69,0.000000,,2013-04-11 06:42:00,
2013-04-11 02:53:00,59.0,59.0,-100.00,SSW,202,5.0,9.0,100,0.00,,,0.69,0.000000,,2013-04-11 06:53:00,
2013-04-11 03:02:00,59.0,59.0,-100.00,SSW,202,5.0,9.0,100,0.00,,,0.69,0.000000,,2013-04-11 07:02:00,
2013-04-11 03:10:00,58.0,57.0,-100.00,SW,222,2.0,8.0,98,0.00,,,0.69,0.000000,,2013-04-11 07:10:00,
2013-04-11 03:43:00,58.0,57.0,-100.00,SW,222,2.0,8.0,98,0.00,,,0.69,0.000000,,2013-04-11 07:43:00,
2013-04-11 03:52:00,58.0,57.0,-100.00,SW,222,2.0,8.0,98,0.00,,,0.69,0.000000,,2013-04-11 07:52:00,
2013-04-11 04:03:00,58.0,57.0,-100.00,SW,222,2.0,8.0,98,0.00,,,0.69,0.000000,,2013-04-11 08:03:00,
2013-04-11 04:10:00,58.0,58.0,-100.00,West,280,4.0,9.0,99,0.00,,,0.69,0.000000,,2013-04-11 08:10:00,
2013-04-11 04:43:00,58.0,58.0,-100.00,West,280,4.0,9.0,99,0.00,,,0.69,0.000000,,2013-04-11 08:43:00,
2013-04-11 04:52:00,58.0,58.0,-100.00,West,280,4.0,9.0,99,0.00,,,0.69,0.000000,,2013-04-11 08:52:00,
2013-04-11 05:02:00,58.0,58.0,-100.00,West,280,4.0,9.0,99,0.00,,,0.69,0.000000,,2013-04-11 09:02:00,
2013-04-11 05:10:00,58.0,57.0,-100.00,North,350,6.0,13.0,97,0.00,,,0.69,0.000000,,2013-04-11 09:10:00,
2013-04-11 05:53:00,58.0,57.0,-100.00,North,350,6.0,13.0,97,0.00,,,0.69,0.000000,,2013-04-11 09:53:00,
2013-04-11 06:03:00,58.0,57.0,-100.00,North,350,6.0,13.0,97,0.00,,,0.69,0.000000,,2013-04-11 10:03:00,
2013-04-11 06:10:00,55.0,54.0,-100.00,NNW,334,5.0,14.0,97,0.00,,,0.69,0.000000,,2013-04-11 10:10:00,
2013-04-11 06:52:00,55.0,54.0,-100.00,NNW,334,5.0,14.0,97,0.00,,,0.69,0.000000,,2013-04-11 10:52:00,
2013-04-11 07:03:00,55.0,54.0,-100.00,NNW,334,5.0,14.0,97,0.00,,,0.69,0.000000,,2013-04-11 11:03:00,
2013-04-11 07:10:00,54.0,51.0,-100.00,North,7,3.0,12.0,91,0.00,,,-99.99,6.000000,,2013-04-11 11:10:00,
2013-04-11 07:43:00,54.0,51.0,-100.00,North,7,3.0,12.0,91,0.00,,,-99.99,6.000000,,2013-04-11 11:43:00,
2013-04-11 07:53:00,54.0,51.0,-100.00,North,7,3.0,12.0,91,0.00,,,-99.99,6.000000,,2013-04-11 11:53:00,
2013-04-11 08:02:00,54.0,51.0,-100.00,North,7,3.0,12.0,91,0.00,,,-99.99,6.000000,,2013-04-11 12:02:00,
2013-04-11 08:10:00,55.0,52.0,-100.00,NNE,16,4.0,8.0,89,0.00,,,-99.99,90.000000,,2013-04-11 12:10:00,
2013-04-11 08:43:00,55.0,52.0,-100.00,NNE,16,4.0,8.0,89,0.00,,,-99.99,90.000000,,2013-04-11 12:43:00,
2013-04-11 08:52:00,55.0,52.0,-100.00,NNE,16,4.0,8.0,89,0.00,,,-99.99,90.000000,,2013-04-11 12:52:00,
2013-04-11 09:02:00,55.0,52.0,-100.00,NNE,16,4.0,8.0,89,0.00,,,-99.99,90.000000,,2013-04-11 13:02:00,
2013-04-11 09:10:00,54.0,50.0,-100.00,North,2,7.0,11.0,86,0.00,,,0.69,172.000000,,2013-04-11 13:10:00,
2013-04-11 09:43:00,54.0,50.0,-100.00,North,2,7.0,11.0,86,0.00,,,0.69,172.000000,,2013-04-11 13:43:00,
2013-04-11 09:54:00,54.0,50.0,-100.00,North,2,7.0,11.0,86,0.00,,,0.69,172.000000,,2013-04-11 13:54:00,
2013-04-11 10:03:00,54.0,50.0,-100.00,North,2,7.0,11.0,86,0.00,,,0.69,172.000000,,2013-04-11 14:03:00,
2013-04-11 10:10:00,52.0,49.0,-100.00,North,10,8.0,15.0,90,0.00,,,0.69,138.000000,,2013-04-11 14:10:00,
2013-04-11 10:43:00,52.0,49.0,-100.00,North,10,8.0,15.0,90,0.00,,,0.69,138.000000,,2013-04-11 14:43:00,
2013-04-11 10:53:00,52.0,49.0,-100.00,North,10,8.0,15.0,90,0.00,,,0.69,138.000000,,2013-04-11 14:53:00,
2013-04-11 11:02:00,52.0,49.0,-100.00,North,10,8.0,15.0,90,0.00,,,0.69,138.000000,,2013-04-11 15:02:00,
2013-04-11 13:10:00,54.0,50.0,-100.00,East,95,7.0,10.0,87,-99.99,,,0.69,257.000000,,2013-04-11 17:10:00,
2013-04-11 13:33:00,54.0,50.0,-100.00,East,95,7.0,10.0,87,-99.99,,,0.69,257.000000,,2013-04-11 17:33:00,
2013-04-11 13:43:00,54.0,50.0,-100.00,East,95,7.0,10.0,87,-99.99,,,0.69,257.000000,,2013-04-11 17:43:00,
2013-04-11 13:53:00,54.0,50.0,-100.00,East,95,7.0,10.0,87,-99.99,,,0.69,257.000000,,2013-04-11 17:53:00,
2013-04-11 14:03:00,54.0,50.0,-100.00,East,95,7.0,10.0,87,-99.99,,,0.69,257.000000,,2013-04-11 18:03:00,
2013-04-11 14:10:00,55.0,50.0,-100.00,East,94,6.0,9.0,84,0.00,,,0.69,204.000000,,2013-04-11 18:10:00,
2013-04-11 14:43:00,55.0,50.0,-100.00,East,94,6.0,9.0,84,0.00,,,0.69,204.000000,,2013-04-11 18:43:00,
2013-04-11 14:53:00,55.0,50.0,-100.00,East,94,6.0,9.0,84,0.00,,,0.69,204.000000,,2013-04-11 18:53:00,
2013-04-11 15:04:00,55.0,50.0,-100.00,East,94,6.0,9.0,84,0.00,,,0.69,204.000000,,2013-04-11 19:04:00,
2013-04-11 15:10:00,55.0,50.0,-100.00,East,92,7.0,12.0,83,0.00,,,0.69,153.000000,,2013-04-11 19:10:00,
2013-04-11 15:33:00,55.0,50.0,-100.00,East,92,7.0,12.0,83,0.00,,,0.69,153.000000,,2013-04-11 19:33:00,
2013-04-11 15:43:00,55.0,50.0,-100.00,East,92,7.0,12.0,83,0.00,,,0.69,153.000000,,2013-04-11 19:43:00,
2013-04-11 15:53:00,55.0,50.0,-100.00,East,92,7.0,12.0,83,0.00,,,0.69,153.000000,,2013-04-11 19:53:00,
2013-04-11 16:03:00,55.0,50.0,-100.00,East,92,7.0,12.0,83,0.00,,,0.69,153.000000,,2013-04-11 20:03:00,
2013-04-11 16:10:00,56.0,49.0,-100.00,East,91,10.0,17.0,77,0.00,,,0.69,139.000000,,2013-04-11 20:10:00,
2013-04-11 16:43:00,56.0,49.0,-100.00,East,91,10.0,17.0,77,0.00,,,0.69,139.000000,,2013-04-11 20:43:00,
2013-04-11 16:53:00,56.0,49.0,-100.00,East,91,10.0,17.0,77,0.00,,,0.69,139.000000,,2013-04-11 20:53:00,
2013-04-11 17:03:00,56.0,49.0,-100.00,East,91,10.0,17.0,77,0.00,,,0.69,139.000000,,2013-04-11 21:03:00,
2013-04-11 17:10:00,56.0,46.0,-100.00,East,87,10.0,16.0,69,0.00,,,0.69,130.000000,,2013-04-11 21:10:00,
2013-04-11 17:43:00,56.0,46.0,-100.00,East,87,10.0,16.0,69,0.00,,,0.69,130.000000,,2013-04-11 21:43:00,
2013-04-11 17:54:00,56.0,46.0,-100.00,East,87,10.0,16.0,69,0.00,,,0.69,130.000000,,2013-04-11 21:54:00,
2013-04-11 18:03:00,56.0,46.0,-100.00,East,87,10.0,16.0,69,0.00,,,0.69,130.000000,,2013-04-11 22:03:00,
2013-04-11 18:10:00,54.0,46.0,-100.00,ESE,115,12.0,18.0,75,0.00,,,0.69,54.000000,,2013-04-11 22:10:00,
2013-04-11 18:33:00,54.0,46.0,-100.00,ESE,115,12.0,18.0,75,0.00,,,0.69,54.000000,,2013-04-11 22:33:00,
2013-04-11 18:44:00,54.0,46.0,-100.00,ESE,115,12.0,18.0,75,0.00,,,0.69,54.000000,,2013-04-11 22:44:00,
2013-04-11 18:53:00,54.0,46.0,-100.00,ESE,115,12.0,18.0,75,0.00,,,0.69,54.000000,,2013-04-11 22:53:00,
2013-04-11 19:04:00,54.0,46.0,-100.00,ESE,115,12.0,18.0,75,0.00,,,0.69,54.000000,,2013-04-11 23:04:00,
2013-04-11 19:10:00,47.0,45.0,-100.00,ESE,123,13.0,21.0,92,0.00,,,0.49,10.000000,,2013-04-11 23:10:00,
2013-04-11 19:33:00,47.0,45.0,-100.00,ESE,123,13.0,21.0,92,0.00,,,0.49,10.000000,,2013-04-11 23:33:00,
2013-04-11 19:43:00,47.0,45.0,-100.00,ESE,123,13.0,21.0,92,0.00,,,0.49,10.000000,,2013-04-11 23:43:00,
2013-04-11 19:54:00,47.0,45.0,-100.00,ESE,123,13.0,21.0,92,0.00,,,0.49,10.000000,,2013-04-11 23:54:00,
2013-04-11 20:02:00,47.0,45.0,-100.00,ESE,123,13.0,21.0,92,0.00,,,0.49,10.000000,,2013-04-12 00:02:00,
2013-04-11 21:10:00,44.0,43.0,-100.00,East,101,11.0,21.0,98,-99.99,,,0.44,0.000000,,2013-04-12 01:10:00,
2013-04-11 21:33:00,44.0,43.0,-100.00,East,101,11.0,21.0,98,-99.99,,,0.44,0.000000,,2013-04-12 01:33:00,
2013-04-11 21:42:00,44.0,43.0,-100.00,East,101,11.0,21.0,98,-99.99,,,0.44,0.000000,,2013-04-12 01:42:00,
2013-04-11 21:52:00,44.0,43.0,-100.00,East,101,11.0,21.0,98,-99.99,,,0.44,0.000000,,2013-04-12 01:52:00,
2013-04-11 22:03:00,44.0,43.0,-100.00,East,101,11.0,21.0,98,-99.99,,,0.44,0.000000,,2013-04-12 02:03:00,
2013-04-11 22:10:00,44.0,43.0,-100.00,East,96,12.0,19.0,96,0.00,,,0.06,0.000000,,2013-04-12 02:10:00,
2013-04-11 22:42:00,44.0,43.0,-100.00,East,96,12.0,19.0,96,0.00,,,0.06,0.000000,,2013-04-12 02:42:00,
2013-04-11 22:52:00,44.0,43.0,-100.00,East,96,12.0,19.0,96,0.00,,,0.06,0.000000,,2013-04-12 02:52:00,
2013-04-11 23:02:00,44.0,43.0,-100.00,East,96,12.0,19.0,96,0.00,,,0.06,0.000000,,2013-04-12 03:02:00,
2013-04-11 23:10:00,44.0,42.0,-100.00,East,87,10.0,21.0,91,0.00,,,0.02,0.000000,,2013-04-12 03:10:00,
2013-04-11 23:33:00,44.0,42.0,-100.00,East,87,10.0,21.0,91,0.00,,,0.02,0.000000,,2013-04-12 03:33:00,
2013-04-11 23:43:00,44.0,42.0,-100.00,East,87,10.0,21.0,91,0.00,,,0.02,0.000000,,2013-04-12 03:43:00,
2013-04-11 23:53:00,44.0,42.0,-100.00,East,87,10.0,21.0,91,0.00,,,0.02,0.000000,,2013-04-12 03:53:00,